This is the latest recevied weather packets stored in our database for station/object W1GK. If no packets are shown the sender has not sent any weather packets the latest 10 day(s).
| Time | Temp. | Humidity | Pressure | Rain* | Wind** | Luminosity | Snow |
|---|---|---|---|---|---|---|---|
| 1777255201 | 17.78° C | 31% | 1008.5 hPa | 0 mm | - | 16 W/m² | - |
| 1777254601 | 18.33° C | 31% | 1008.4 hPa | 0 mm | - | 19 W/m² | - |
| 1777254001 | 18.33° C | 31% | 1008.4 hPa | 0 mm | - | 21 W/m² | - |
| 1777253400 | 18.33° C | 31% | 1008.5 hPa | 0 mm | - | 114 W/m² | - |
| 1777252800 | 18.89° C | 31% | 1008.4 hPa | 0 mm | - | 151 W/m² | - |
| 1777252199 | 18.89° C | 31% | 1008.5 hPa | 0 mm | - | 179 W/m² | - |
| 1777251605 | 18.89° C | 31% | 1008.4 hPa | 0 mm | - | 125 W/m² | - |
| 1777251001 | 18.89° C | 31% | 1008.4 hPa | 0 mm | - | 118 W/m² | - |
| 1777250400 | 19.44° C | 30% | 1008.4 hPa | 0 mm | - | 142 W/m² | - |
| 1777249801 | 19.44° C | 30% | 1008.4 hPa | 0 mm | - | 315 W/m² | - |
| 1777249202 | 19.44° C | 30% | 1008.4 hPa | 0 mm | - | 353 W/m² | - |
| 1777248600 | 19.44° C | 30% | 1008.4 hPa | 0 mm | - | 380 W/m² | - |
| 1777248000 | 19.44° C | 31% | 1008.4 hPa | 0 mm | - | 399 W/m² | - |
| 1777247400 | 18.89° C | 32% | 1008.4 hPa | 0 mm | - | 425 W/m² | - |
| 1777246800 | 18.89° C | 32% | 1008.5 hPa | 0 mm | - | 425 W/m² | - |
| 1777246201 | 18.89° C | 32% | 1008.5 hPa | 0 mm | - | 299 W/m² | - |
| 1777245594 | 18.89° C | 32% | 1008.5 hPa | 0 mm | - | 236 W/m² | - |
| 1777244993 | 19.44° C | 32% | 1008.4 hPa | 0 mm | - | 220 W/m² | - |
| 1777244394 | 19.44° C | 32% | 1008.4 hPa | 0 mm | - | 250 W/m² | - |
| 1777243795 | 19.44° C | 32% | 1008.4 hPa | 0 mm | - | 294 W/m² | - |
| 1777243194 | 19.44° C | 32% | 1008.4 hPa | 0 mm | - | 313 W/m² | - |
| 1777242594 | 20° C | 31% | 1008.5 hPa | 0 mm | - | 265 W/m² | - |
| 1777241994 | 19.44° C | 31% | 1008.5 hPa | 0 mm | - | 236 W/m² | - |
| 1777241396 | 20.56° C | 30% | 1008.6 hPa | 0 mm | - | 322 W/m² | - |
| 1777240797 | 20.56° C | 30% | 1008.8 hPa | 0 mm | - | 606 W/m² | - |
* Rain latest hour (hover to see other rain measurements)
** Current wind speed in m/s (hover to see current wind gust speed)